This is the latest recevied weather packets stored in our database for station/object HB9HFD-13. If no packets are shown the sender has not sent any weather packets the latest 10 day(s).
| Time | Temp. | Humidity | Pressure | Rain* | Wind** | Luminosity | Snow |
|---|---|---|---|---|---|---|---|
| 1787928393 | 25.56° C | 55% | 1014.1 hPa | 0 mm | - | - | - |
| 1787928093 | 25° C | 56% | 1014 hPa | 0 mm | - | - | - |
| 1787927792 | 24.44° C | 58% | 1014 hPa | 0 mm | - | - | - |
| 1787927492 | 24.44° C | 56% | 1014.1 hPa | 0 mm | - | - | - |
| 1787927192 | 24.44° C | 59% | 1014.1 hPa | 0 mm | - | - | - |
| 1787926892 | 24.44° C | 56% | 1013.8 hPa | 0 mm | - | - | - |
| 1787926591 | 24.44° C | 60% | 1013.7 hPa | 0 mm | - | - | - |
| 1787926291 | 24.44° C | 56% | 1014 hPa | 0 mm | - | - | - |
| 1787925991 | 25° C | 59% | 1014 hPa | 0 mm | - | - | - |
| 1787925691 | 24.44° C | 61% | 1014.2 hPa | 0 mm | - | - | - |
| 1787925390 | 23.89° C | 60% | 1014.1 hPa | 0 mm | - | - | - |
| 1787925090 | 24.44° C | 62% | 1014.2 hPa | 0 mm | - | - | - |
| 1787924790 | 23.89° C | 64% | 1014.3 hPa | 0 mm | - | - | - |
| 1787924489 | 23.33° C | 67% | 1014.3 hPa | 0 mm | - | - | - |
| 1787924189 | 23.33° C | 64% | 1014.3 hPa | 0 mm | - | - | - |
| 1787923889 | 23.33° C | 66% | 1014.4 hPa | 0 mm | - | - | - |
| 1787923589 | 23.33° C | 67% | 1014.4 hPa | 0 mm | - | - | - |
| 1787923289 | 23.33° C | 67% | 1014.4 hPa | 0 mm | - | - | - |
| 1787922988 | 22.78° C | 68% | 1014.3 hPa | 0 mm | - | - | - |
| 1787922688 | 22.22° C | 68% | 1014.1 hPa | 0 mm | - | - | - |
| 1787922388 | 22.22° C | 68% | 1014 hPa | 0 mm | - | - | - |
| 1787922087 | 22.22° C | 70% | 1014 hPa | 0 mm | - | - | - |
| 1787921787 | 21.67° C | 69% | 1014 hPa | 0 mm | - | - | - |
| 1787921487 | 21.11° C | 71% | 1014.3 hPa | 0 mm | - | - | - |
| 1787921186 | 21.11° C | 72% | 1014.2 hPa | 0 mm | - | - | - |
* Rain latest hour (hover to see other rain measurements)
** Current wind speed in m/s (hover to see current wind gust speed)